Wind_Speed
17 17 17 17 17 16 15 14 14 14 14 15 15 17 18 19 14 6 4 4 2 7 8 5 13 18 19 8 8 2 3 1 5 6 6 18 13 11 12 19 14 2 18 26 32
18 17 17 18 17 16 15 15 15 16 15 15 14 16 17 17 11 8 9 5 6 9 8 12 28 12 3 3 2 2 2 4 6 10 9 16 21 14 12 19 13 19 21 33 33
19 18 17 18 17 15 15 16 18 18 16 14 14 14 15 13 3 6 8 9 10 10 8 5 31 14 4 1 1 0 4 4 10 10 14 14 20 16 21 16 23 22 26 27 31
20 19 18 18 17 16 16 18 20 19 16 13 12 12 12 3 2 5 9 9 9 7 5 3 5 12 7 6 3 4 11 4 9 7 6 10 14 18 18 13 21 20 23 25 21
22 21 19 18 18 16 17 19 20 16 13 10 8 8 2 2 7 6 11 10 10 6 7 3 4 6 4 10 8 6 2 9 7 13 12 13 9 11 14 20 18 18 23 19 20
25 23 20 19 19 17 17 19 18 13 11 7 5 6 2 2 4 9 10 11 9 10 10 6 7 6 7 7 8 6 8 7 5 8 8 10 6 10 17 19 17 17 18 18 17
28 25 21 20 20 17 17 18 18 12 9 6 4 2 1 8 5 12 12 12 11 17 5 14 13 7 4 6 2 8 4 4 1 2 5 7 7 12 19 17 15 10 13 12 15
29 27 24 22 21 18 18 18 16 9 7 4 3 0 5 2 9 12 11 13 15 18 21 25 20 1 2 7 5 5 5 2 3 3 1 5 4 13 19 19 15 11 12 10 7
30 29 26 24 23 20 19 19 13 6 5 4 1 1 7 2 10 14 16 11 12 22 28 23 5 5 2 5 3 3 1 4 2 7 3 2 6 12 15 18 17 14 13 11 8
32 31 28 26 24 22 20 18 7 4 1 1 3 3 4 4 5 9 16 17 3 6 7 5 4 2 2 3 5 6 4 4 6 8 7 4 8 18 16 18 19 17 15 11 10
33 32 30 27 23 22 21 6 5 4 2 7 5 5 5 11 9 5 6 1 4 5 3 5 5 6 13 11 12 9 6 7 8 8 6 12 7 19 18 15 17 16 15 13 12
34 34 31 27 23 19 13 1 6 2 7 8 14 6 17 7 3 4 3 2 1 5 5 6 5 13 8 1 6 10 3 5 2 5 7 7 11 17 19 21 21 19 16 15 13
34 34 32 27 21 7 10 12 19 21 2 8 7 5 6 6 5 6 8 4 5 3 5 5 10 8 5 6 8 5 5 4 5 3 4 3 3 16 17 20 17 17 13 10 15
35 35 32 29 4 13 9 7 28 6 4 7 3 5 3 4 3 7 13 5 1 8 4 5 7 5 4 4 5 5 4 3 5 4 3 4 4 8 18 19 18 11 7 1 8
35 37 30 22 14 5 5 26 27 4 2 4 5 7 7 8 4 3 2 4 5 6 5 6 5 6 8 1 2 4 2 4 3 3 4 1 2 7 15 11 5 14 13 12 12
39 34 28 10 11 15 17 25 6 5 5 3 6 7 5 1 1 5 2 3 1 3 2 7 1 3 2 2 3 2 4 7 6 4 3 4 6 5 9 8 10 14 18 16 13
39 30 24 13 5 3 22 5 5 3 5 5 6 5 5 7 5 5 5 3 3 3 4 4 2 1 4 4 8 9 7 4 4 4 6 3 4 5 7 16 20 18 13 15 12
38 29 14 18 13 7 8 5 4 5 6 2 4 5 8 5 5 6 4 2 5 3 4 3 3 1 1 3 3 3 6 5 2 1 5 5 5 4 4 11 7 9 12 13 12
39 16 10 13 7 6 5 3 8 6 2 5 7 5 3 4 5 3 4 4 1 1 6 4 1 3 4 2 4 3 3 5 4 1 4 3 4 15 13 15 14 15 12 7 6
28 10 8 5 11 10 5 6 5 4 7 7 1 6 7 7 5 5 3 2 3 3 3 1 4 3 2 4 4 5 2 4 4 2 4 3 4 7 5 10 16 17 15 9 12
8 4 7 12 12 5 3 6 6 6 7 5 9 10 7 9 9 4 3 5 3 3 9 3 4 5 4 3 5 4 4 5 5 3 4 3 3 2 2 1 7 9 11 13 14
7 3 9 19 3 1 2 4 8 17 14 7 7 10 5 8 6 6 5 3 3 2 4 2 5 1 5 8 2 4 3 5 5 3 4 6 1 6 9 11 13 14 14 12 10
3 3 6 11 2 3 5 4 3 5 7 4 5 1 5 5 7 7 5 6 6 6 2 3 3 3 8 8 7 6 5 4 4 3 1 6 3 3 9 11 9 11 8 7 9
2 4 4 4 1 5 2 5 6 7 12 8 5 7 7 7 5 5 5 5 6 5 6 7 4 6 5 4 3 4 6 4 5 4 4 3 7 2 6 7 7 7 7 7 7
1 3 2 3 5 2 1 2 9 5 7 4 7 6 8 6 6 6 6 6 6 2 4 5 3 3 4 2 4 4 7 7 1 4 5 6 7 2 4 6 4 7 11 13 13
2 3 4 3 5 4 5 4 6 10 3 4 10 13 12 5 7 9 8 4 4 4 5 5 2 4 7 7 7 3 7 8 5 13 16 12 7 1 5 7 11 9 9 9 8
7 6 3 5 6 4 4 8 9 3 16 12 15 15 18 6 10 10 8 6 9 7 3 4 3 3 4 6 6 5 6 9 10 9 8 4 4 2 5 6 6 7 7 7 9
Wind_Direction
1 357 352 347 345 342 340 340 340 338 334 333 330 328 338 334 332 297 254 251 159 159 177 111 76 32 8 19 31 9 53 305 140 110 135 130 124 143 124 136 156 221 142 153 151
358 354 351 347 344 341 340 338 336 334 330 329 328 329 337 333 328 258 251 221 217 168 192 106 87 332 336 330 33 349 84 249 173 131 136 131 137 129 134 148 121 120 129 147 145
356 353 347 345 341 337 336 334 331 326 322 320 321 329 331 335 310 255 225 205 209 188 207 112 134 165 237 228 257 229 213 284 122 140 149 144 139 140 142 148 152 147 148 150 153
354 351 345 343 340 332 331 331 330 325 322 317 314 325 326 343 175 267 196 193 203 204 283 303 180 171 152 145 276 258 237 268 61 91 136 153 122 155 152 166 157 149 152 150 164
355 351 344 340 338 329 329 332 334 332 332 327 316 328 356 31 252 238 192 192 206 204 238 261 281 215 187 138 195 236 165 73 67 73 67 84 126 134 133 145 156 153 150 164 168
357 351 345 339 336 328 328 332 335 334 338 340 329 339 70 293 237 194 191 192 205 224 250 218 248 272 99 152 203 178 82 85 43 84 82 92 117 111 140 149 153 158 155 172 173
357 353 347 340 335 327 327 331 333 326 332 336 331 351 111 236 225 182 190 202 225 235 239 261 293 54 12 131 283 97 64 35 248 352 95 101 79 141 148 150 156 153 170 173 177
357 353 347 341 334 330 325 327 328 316 320 327 320 95 251 217 187 180 200 238 255 262 256 272 289 138 237 109 19 62 74 93 249 124 341 93 165 156 155 153 163 170 183 187 197
357 353 347 341 336 331 325 326 319 301 300 310 340 178 273 303 184 230 213 225 265 266 263 271 310 162 38 117 9 325 152 215 175 193 146 115 147 172 169 163 168 182 190 193 184
356 353 347 342 338 331 330 326 304 288 323 179 263 338 271 221 202 229 227 232 271 334 353 38 48 31 112 159 216 208 206 189 208 184 189 172 210 171 180 176 177 184 193 196 175
355 351 347 342 339 332 336 345 22 14 185 198 205 219 288 225 209 211 236 11 358 27 321 335 39 263 268 224 231 179 231 183 209 192 148 200 196 180 181 187 183 189 191 187 178
353 350 344 340 333 322 324 116 215 115 304 249 238 257 253 190 144 268 226 144 111 244 352 358 291 266 250 186 68 32 93 188 156 151 165 192 217 191 181 194 189 186 188 183 168
351 348 342 336 329 329 322 266 323 304 317 294 212 209 210 145 194 237 141 171 218 256 248 176 249 308 72 44 48 29 61 4 169 160 252 55 321 182 201 196 193 191 183 181 170
348 345 339 336 351 330 282 314 329 333 57 275 217 254 164 98 296 213 188 157 299 234 261 238 278 193 56 54 98 50 291 83 52 70 213 96 262 209 199 197 189 167 137 157 172
343 340 334 330 305 280 309 328 340 124 23 246 215 171 155 142 168 321 161 63 236 260 58 270 29 53 63 43 88 181 286 322 139 88 340 161 72 272 186 187 137 126 112 97 86
337 335 327 318 291 269 323 335 5 50 249 231 153 167 111 235 263 166 140 82 213 258 162 216 181 98 139 315 355 152 44 29 40 76 7 260 134 290 183 151 120 117 120 107 83
334 333 314 278 251 285 330 19 49 147 298 208 179 154 156 200 175 180 172 202 166 52 351 344 7 42 88 31 8 61 49 358 17 9 226 51 59 265 118 124 132 125 126 125 145
335 330 307 271 268 286 353 56 181 233 264 281 153 134 168 168 222 181 149 66 21 113 97 114 2 350 26 121 182 91 132 142 176 216 269 359 16 344 68 104 105 101 127 146 178
337 331 291 279 234 204 77 91 208 209 275 20 356 135 238 189 156 158 121 129 110 132 112 89 96 16 81 55 108 313 39 186 124 352 68 8 16 34 46 60 73 94 110 126 148
334 327 273 222 145 123 80 224 234 228 6 36 309 223 167 187 112 135 106 140 105 25 118 133 79 313 253 49 4 112 200 37 11 52 73 321 56 126 46 93 94 93 95 85 86
346 4 340 151 145 52 161 241 301 318 1 341 307 281 187 182 153 133 71 1 62 55 75 89 93 285 16 7 193 12 17 52 110 95 137 100 353 335 269 207 113 104 105 112 112
354 3 25 151 63 59 213 252 302 308 312 278 284 222 160 183 58 82 86 112 345 76 63 339 124 131 244 312 88 112 118 109 107 307 45 102 332 359 71 56 70 62 64 60 55
343 272 354 171 144 275 295 291 267 293 288 270 273 71 73 108 94 100 77 327 83 74 105 343 22 31 351 353 7 51 2 61 110 87 159 111 160 27 67 60 59 69 54 50 51
14 351 323 28 94 138 345 308 310 286 286 250 191 80 83 60 71 124 123 47 35 91 100 78 86 132 161 212 233 341 339 50 96 81 115 84 153 206 50 59 47 53 50 47 61
105 277 188 311 330 316 91 289 298 303 227 311 17 116 131 110 83 122 106 106 10 130 79 95 110 118 174 332 2 308 319 318 342 175 117 197 118 132 88 78 51 30 25 34 26
47 31 344 284 311 3 355 324 317 333 297 31 85 64 62 107 143 164 128 119 159 10 62 21 4 51 356 10 23 336 323 316 359 89 104 117 100 53 42 44 42 42 35 31 12
341 321 101 294 333 29 349 308 347 217 24 47 96 81 65 27 101 121 117 121 143 115 97 82 104 74 303 344 1 25 316 81 64 44 140 105 138 127 60 49 71 45 25 360 345
Height
806 803 800 797 794 792 789 788 787 786 783 782 780 777 776 772 768 765 764 762 763 765 764 769 780 780 771 777 778 783 798 799 784 785 784 767 779 779 775 786 789 787 794 804 811
806 803 800 797 793 791 789 787 786 784 782 780 778 776 774 770 766 762 759 761 762 764 762 777 769 784 784 781 784 793 803 788 760 764 772 767 771 781 788 794 796 795 799 807 812
805 802 799 796 793 790 788 785 784 782 779 778 777 775 773 770 768 757 755 759 761 763 764 774 783 785 788 787 789 793 798 765 755 755 757 765 773 773 788 803 792 796 800 805 810
804 801 798 795 792 789 787 784 782 779 777 776 775 773 771 770 783 755 755 758 760 762 762 766 772 787 788 794 791 800 776 764 758 756 759 767 768 783 780 789 786 791 797 803 808
802 800 797 794 791 788 785 782 780 777 776 774 773 772 771 772 765 754 755 758 759 762 763 763 768 767 777 784 788 793 761 757 755 757 763 763 773 779 785 784 789 793 800 804 805
802 798 795 792 789 786 783 780 778 776 775 773 772 772 772 777 755 754 755 757 759 760 758 761 761 753 763 774 777 770 761 764 764 765 767 777 780 779 788 785 791 793 798 802 805
801 796 793 790 787 784 781 779 776 774 774 773 772 772 773 766 756 755 755 754 755 754 756 752 753 757 759 776 759 760 776 775 773 770 777 775 796 794 785 787 794 797 797 799 802
800 795 791 788 784 781 779 777 774 773 772 772 772 772 771 757 756 756 755 754 752 752 753 749 749 754 756 755 767 776 785 805 781 776 775 780 813 792 784 788 795 796 797 799 800
800 794 789 786 782 779 776 773 771 771 771 771 772 772 771 756 757 754 754 753 752 749 746 747 747 757 760 781 797 790 812 805 791 773 779 787 807 790 784 788 794 795 795 796 799
798 793 789 784 779 775 773 770 769 769 769 771 771 777 759 757 752 752 753 754 751 748 749 751 759 772 780 784 818 801 806 794 797 778 780 792 790 783 783 786 789 792 794 795 797
798 792 787 782 778 774 770 768 771 774 770 767 763 763 755 750 752 752 751 751 751 757 776 763 784 796 779 774 762 770 782 785 778 768 783 786 785 780 779 786 788 790 791 793 795
796 791 785 781 777 774 773 771 768 770 778 756 754 756 752 748 756 751 751 761 765 783 773 785 799 768 760 754 762 766 778 785 772 768 783 787 788 774 774 776 775 780 786 788 791
796 790 783 778 774 773 772 768 766 768 780 759 749 750 749 747 757 757 751 757 770 781 779 795 776 757 754 763 773 786 789 787 785 772 773 777 791 782 772 770 773 775 781 785 789
794 789 783 776 776 773 769 765 764 764 804 779 755 748 744 746 760 743 747 755 765 779 775 780 760 760 764 770 777 799 775 777 782 795 814 780 832 798 774 773 773 781 789 793 792
791 787 782 779 776 772 767 764 760 762 836 759 755 736 741 757 754 752 744 751 771 774 776 783 770 772 778 774 768 785 766 773 778 798 802 798 818 791 769 782 785 789 792 797 798
787 783 777 776 773 766 766 762 761 808 824 767 748 754 759 756 755 750 751 748 752 768 769 773 751 762 767 761 761 761 776 791 800 815 839 807 809 812 784 783 789 788 790 796 798
781 777 772 772 768 765 765 764 811 826 767 770 766 758 764 768 766 761 766 773 788 796 798 780 774 761 758 777 773 780 814 847 834 847 844 803 805 807 776 774 779 790 795 794 798
775 769 765 763 764 766 767 788 814 788 779 750 757 764 774 766 767 764 772 789 774 783 807 813 818 775 761 775 785 786 809 845 840 850 832 799 824 813 789 782 783 783 791 795 798
770 764 761 756 760 767 779 814 805 783 760 765 763 775 775 763 765 765 776 787 777 776 802 811 803 770 765 764 774 789 812 798 822 827 838 832 824 802 796 795 793 793 796 801 802
770 764 758 756 760 765 791 804 786 762 759 764 782 770 783 770 771 771 776 771 777 769 771 790 812 786 770 768 771 783 785 821 839 845 852 843 836 840 826 817 807 807 808 808 803
771 771 754 756 762 778 803 798 773 756 759 766 772 779 762 768 768 779 786 778 770 778 776 787 807 803 786 792 796 799 808 815 829 842 856 866 863 832 832 824 820 813 810 809 808
781 784 758 757 783 793 794 777 765 762 755 761 757 754 752 758 774 784 791 779 767 770 789 791 821 827 804 789 779 785 796 820 847 839 854 855 867 830 827 823 820 822 820 819 819
795 785 757 759 792 794 781 771 764 764 759 758 759 737 743 760 787 782 784 778 771 782 794 792 828 848 831 816 799 808 806 805 826 839 844 864 871 834 827 828 825 825 824 822 822
797 796 774 767 776 779 779 779 772 753 752 745 741 736 749 767 770 785 788 781 775 780 782 792 828 838 857 831 820 819 812 808 826 847 855 858 857 847 839 835 830 828 825 823 823
796 795 790 799 786 779 773 773 771 768 745 735 743 744 754 773 780 788 786 790 788 784 786 803 828 818 821 814 813 812 812 809 812 819 841 854 853 845 840 838 832 828 826 826 826
800 801 795 794 788 777 779 774 769 761 749 747 757 755 758 765 767 789 786 792 795 791 795 809 829 819 832 818 819 818 811 808 811 824 840 845 850 837 836 833 834 836 834 834 833
800 796 796 795 793 789 792 785 770 758 755 749 750 756 764 769 759 766 772 779 788 797 809 816 830 843 844 828 825 839 828 822 828 828 837 851 843 839 844 841 841 842 839 837 834